RH
25 22 17 13 12 9 4 4 2 3 3 2 2 1 2 2 3 4 5 5 5 5 4 4 4 4 4 4 4 5 5 5 4 5 5 5 5 5 5 5 5 5 4 4 4 4 4 5 5 5 6 6 6 6 6 6 6 6 7 7 7 7 7 7 8 8 8 8 8 8 9 8 9 8 8 8 8 8 8 8 8 8 9 9 11 12 15 16
31 27 19 17 22 16 6 5 4 2 3 2 2 2 2 2 3 5 5 6 5 5 4 4 4 4 4 4 5 5 5 5 5 5 5 6 5 5 5 5 5 5 5 5 5 5 5 5 5 6 6 6 7 7 7 7 7 7 7 7 7 7 8 8 8 8 9 9 9 9 9 9 9 9 9 9 9 9 9 9 9 9 9 10 11 14 17 17
34 34 26 22 30 26 8 5 6 3 2 2 2 2 2 3 4 5 6 5 5 4 4 4 4 4 4 5 5 5 5 5 5 6 6 6 5 6 6 5 5 5 5 5 5 5 5 5 5 6 6 7 8 7 8 8 8 8 8 8 8 8 8 9 9 9 10 10 10 10 10 10 10 10 10 10 10 9 10 10 10 10 10 11 12 16 18 18
35 36 32 22 26 34 21 8 6 4 3 3 2 2 4 5 5 5 6 5 4 4 4 5 5 5 5 5 5 5 5 5 6 6 6 6 6 6 6 6 6 5 6 5 5 5 5 6 6 6 6 7 8 8 8 8 8 9 9 9 9 9 9 10 10 10 11 11 11 11 11 11 11 11 11 11 10 10 11 11 11 11 10 11 13 17 20 19
35 33 31 23 20 35 36 14 4 5 4 4 3 2 3 6 6 6 5 4 5 5 5 5 5 5 5 6 6 6 6 6 6 6 6 6 6 6 6 6 6 6 6 6 6 6 6 6 6 6 7 7 7 8 9 9 9 9 10 10 10 11 10 11 11 12 12 12 12 12 12 12 12 11 11 11 11 12 12 12 12 11 11 12 15 19 21 21
37 33 27 24 21 33 42 22 5 4 4 4 3 3 3 5 6 6 5 4 5 5 5 5 6 6 7 8 8 8 9 8 6 6 6 6 6 6 6 6 6 6 6 6 6 6 6 6 6 6 7 7 8 8 9 9 10 10 11 11 12 12 12 12 13 14 14 14 14 13 13 13 12 11 12 11 12 14 13 13 13 12 12 13 16 21 22 22
37 37 29 27 29 34 41 31 14 4 3 4 2 3 3 4 6 6 5 5 5 5 6 6 7 7 7 7 7 8 8 7 6 6 6 6 6 6 6 6 6 6 6 6 6 6 6 6 6 7 7 8 8 9 10 10 10 11 12 12 13 13 14 14 15 15 15 15 15 14 15 14 14 12 12 12 14 15 13 13 13 12 13 14 17 22 24 24
38 40 34 29 33 37 34 27 18 8 2 3 2 3 4 5 6 6 5 5 5 6 6 6 6 6 6 6 6 6 6 6 6 6 6 6 6 6 6 6 6 6 7 7 7 7 7 7 7 7 8 8 9 10 10 11 11 11 12 12 13 14 14 15 15 16 16 16 16 16 16 16 15 14 13 14 15 15 14 14 13 13 14 15 19 24 25 26
44 43 34 25 34 41 28 13 11 9 3 2 2 3 6 6 6 5 5 5 6 6 6 5 6 6 6 6 6 6 6 7 6 6 7 6 6 6 6 6 6 7 7 7 7 7 7 7 8 8 9 9 10 10 10 11 12 12 13 13 13 14 14 15 15 16 16 17 17 17 17 17 17 16 14 15 15 14 14 14 13 14 15 16 21 26 27 28
47 42 30 21 32 40 31 15 7 6 3 2 3 4 6 7 6 6 6 5 6 6 5 5 6 6 6 6 7 7 7 7 7 7 7 7 7 7 7 7 7 7 7 8 7 7 8 8 9 9 9 10 10 11 11 12 12 13 13 13 13 14 14 15 16 17 17 17 18 17 17 18 18 17 15 15 16 15 15 15 14 15 16 17 23 28 29 29
44 40 31 22 25 27 28 21 8 4 3 3 4 5 7 7 7 7 6 6 5 5 5 6 6 6 7 7 7 7 7 7 7 7 8 8 8 7 8 8 8 8 8 8 9 9 9 9 10 10 10 11 11 11 12 13 13 13 14 14 14 14 15 16 17 18 18 19 19 19 18 18 18 17 16 16 17 17 16 16 16 17 17 18 24 29 31 31
43 42 32 18 17 17 17 13 6 4 3 3 6 7 7 6 7 7 6 5 5 5 5 6 6 6 7 7 7 7 8 8 8 8 8 8 8 9 9 9 9 9 9 10 10 10 10 11 11 11 11 11 12 12 13 13 13 14 14 15 15 15 16 17 18 19 19 20 21 21 17 16 19 19 17 18 19 18 18 18 18 18 18 19 25 31 32 32
47 43 28 13 11 14 12 7 5 4 2 3 5 8 8 6 6 5 5 6 5 6 5 5 6 6 7 7 8 8 8 8 8 9 9 9 9 9 10 10 10 10 10 10 11 11 11 12 11 12 12 11 12 13 13 14 14 15 15 15 16 16 18 18 20 20 20 22 23 24 19 15 20 21 19 20 21 20 20 20 20 20 19 19 25 32 33 33
47 35 25 18 13 10 9 5 4 4 3 2 4 7 8 6 6 5 5 6 6 6 6 6 6 7 7 8 8 8 8 9 9 9 9 10 9 10 10 10 11 11 11 11 11 12 12 12 13 12 12 13 14 14 15 15 15 16 16 16 17 18 19 20 21 21 22 24 24 26 22 16 20 23 22 21 22 23 22 22 22 21 19 20 26 32 33 34
43 36 31 24 12 7 9 7 5 4 3 2 3 6 8 7 5 5 6 6 6 6 6 7 7 7 8 7 8 8 9 9 9 10 9 10 10 10 11 11 11 11 11 12 12 12 13 13 13 13 13 14 15 15 16 17 16 17 17 17 18 20 20 21 23 23 24 26 25 27 24 17 21 25 25 24 24 25 24 24 24 21 20 23 28 33 35 35
36 34 27 16 6 6 11 9 5 3 4 4 4 6 8 7 5 5 6 6 7 7 7 7 7 8 8 8 8 8 9 9 9 10 10 10 11 10 11 11 12 12 12 13 13 13 13 14 14 14 15 16 16 17 17 18 18 19 19 19 20 21 21 21 23 24 25 26 26 28 25 18 19 24 25 25 26 26 24 24 23 21 23 26 31 35 36 36
32 23 11 6 5 7 10 8 5 4 6 6 5 6 8 7 6 5 6 6 7 7 7 8 8 8 8 8 8 8 8 9 9 10 10 10 11 11 11 12 12 12 13 13 13 14 14 14 15 15 16 17 18 18 18 19 20 20 21 21 21 21 22 22 24 24 24 25 26 28 24 17 18 22 25 26 26 24 24 24 23 24 28 30 34 36 37 36
36 22 7 4 5 7 8 5 5 8 8 8 7 6 8 8 7 6 5 6 6 7 7 8 8 8 9 8 8 9 8 9 10 10 11 11 11 12 12 12 13 13 13 13 14 14 15 15 15 16 17 18 19 19 20 21 21 21 22 22 22 21 21 24 25 25 25 25 25 27 24 17 18 22 24 25 24 23 24 24 26 29 32 33 35 37 37 34
38 27 12 5 3 9 16 8 5 11 9 8 9 7 9 8 6 6 5 6 6 7 8 8 9 10 10 9 8 9 9 9 10 10 11 11 12 12 12 13 13 13 14 14 14 14 15 16 16 17 18 19 19 19 20 21 21 22 23 24 24 22 20 24 26 25 27 26 23 26 24 16 18 22 22 23 23 24 25 26 29 31 32 34 35 35 34 30
32 25 14 8 4 9 22 16 5 10 11 9 9 7 8 7 6 6 5 7 7 8 10 9 9 10 10 9 8 9 9 9 9 9 10 11 12 12 12 13 13 14 14 14 15 15 15 16 17 18 19 19 19 19 20 21 22 23 23 23 24 24 22 23 24 24 26 26 23 25 23 16 19 22 21 22 24 24 26 29 30 28 29 31 31 29 25 21
18 16 12 10 7 7 17 16 6 9 11 9 9 7 8 7 6 7 6 7 8 9 10 10 11 10 9 9 9 9 9 9 9 9 10 10 11 12 12 13 13 14 15 15 16 15 16 17 17 18 19 19 19 19 20 22 23 23 24 23 23 25 24 22 24 24 26 27 24 24 22 17 19 22 21 22 25 25 27 31 28 22 23 24 22 21 17 16
9 11 10 8 9 7 10 11 7 9 10 9 9 7 7 8 7 8 9 9 9 9 10 11 11 10 9 9 9 9 9 9 9 9 10 10 11 11 12 13 13 14 14 15 16 16 16 17 17 18 18 19 19 20 20 22 24 24 25 25 25 27 26 24 25 25 27 27 24 25 23 17 18 21 21 22 26 27 28 30 25 18 18 18 17 16 16 16
8 10 10 8 9 8 7 7 8 10 10 10 9 8 8 8 8 10 10 10 9 9 9 9 9 9 9 9 9 9 9 9 10 10 10 10 10 11 11 13 13 14 14 15 16 16 15 16 17 17 18 19 19 20 22 23 24 25 27 28 27 29 30 29 28 27 28 27 26 27 25 19 18 21 21 24 28 27 29 30 23 18 17 16 16 18 20 21
7 9 9 8 8 10 9 8 9 11 11 11 10 9 9 8 9 10 9 9 8 8 8 8 8 8 8 9 8 9 9 9 10 10 10 10 10 10 11 12 13 13 14 15 15 16 15 16 17 17 18 19 20 21 23 24 24 26 28 29 29 30 32 33 31 29 26 26 26 27 25 20 19 22 22 25 28 28 30 30 23 19 18 16 18 23 27 27
6 7 7 7 9 12 12 11 11 11 11 11 11 10 9 8 8 8 8 8 7 7 8 8 8 8 8 8 8 9 9 9 9 10 11 10 10 10 11 11 12 13 14 15 15 15 15 15 16 17 18 19 20 22 23 25 25 25 27 29 30 31 32 33 32 30 27 27 26 27 32 28 20 22 24 25 28 28 30 29 23 20 20 19 19 23 28 29
7 6 6 9 12 13 12 13 12 12 12 11 11 10 9 9 8 8 8 8 7 7 7 8 9 9 10 10 9 10 9 9 10 10 11 11 10 11 11 11 12 13 14 15 15 14 15 16 15 17 18 18 20 22 24 26 26 27 27 28 31 32 33 33 32 32 31 31 29 29 36 34 22 20 24 25 27 27 29 28 21 21 22 21 21 25 28 26
6 6 9 12 13 13 13 14 13 12 13 11 11 11 10 9 9 8 8 8 8 9 10 9 10 10 11 12 12 12 11 11 11 11 11 11 10 11 11 11 12 13 14 15 15 15 15 16 16 17 18 18 20 22 23 26 28 29 28 30 33 33 34 34 32 32 33 31 30 29 33 36 28 21 23 24 25 27 28 25 22 24 25 24 26 27 25 23
6 9 13 13 14 14 13 13 13 12 12 12 12 11 10 11 10 9 9 8 9 12 13 12 11 12 11 11 12 12 11 11 10 10 11 11 11 11 11 11 12 13 13 15 15 15 15 16 17 18 17 18 21 22 24 27 30 30 30 32 34 34 35 33 31 33 34 32 32 30 31 38 34 23 22 24 24 26 24 23 26 27 28 30 29 24 24 31
8 12 14 14 14 14 13 13 13 13 13 12 12 11 11 11 10 10 10 9 10 13 14 14 14 14 13 12 11 11 11 10 10 10 10 10 10 10 11 11 12 12 12 14 15 15 16 16 18 18 17 19 20 22 24 27 30 31 31 33 34 35 32 29 31 34 35 36 35 31 33 41 38 24 22 25 25 26 24 24 28 28 31 32 25 23 31 39
9 13 14 14 13 14 14 14 14 13 13 12 12 12 11 11 11 12 12 11 13 15 14 14 14 14 14 13 12 11 11 10 10 10 9 10 10 10 11 11 11 12 12 13 14 15 16 17 18 18 18 20 21 23 25 27 30 31 32 34 34 33 30 31 34 32 38 45 38 31 34 42 43 30 21 24 26 26 26 27 29 30 33 29 22 26 36 42
10 12 12 12 12 13 13 13 13 12 12 12 12 12 11 11 11 13 14 11 11 13 13 13 13 13 13 13 12 11 11 11 10 10 10 10 10 10 10 11 12 13 12 13 14 15 17 17 18 18 19 21 22 24 24 26 30 31 33 35 33 32 30 33 34 31 44 53 39 32 36 42 45 33 22 25 26 27 30 31 32 34 35 28 23 29 37 45
9 11 10 11 11 12 12 11 11 10 11 10 10 11 10 10 11 11 11 10 10 12 13 13 12 13 13 12 12 11 11 11 10 11 10 10 10 10 10 11 11 13 15 15 15 16 16 17 17 18 19 22 23 24 25 26 29 31 33 34 34 40 43 47 48 44 47 48 34 34 41 43 40 28 23 25 26 29 32 34 35 39 40 34 30 34 40 47
8 9 10 10 9 10 10 10 10 9 9 8 8 9 9 11 12 10 10 10 10 12 13 12 12 11 11 11 10 10 10 10 10 10 10 10 10 10 10 11 11 14 16 16 17 19 19 18 17 18 20 22 22 23 25 27 30 32 33 33 35 46 59 68 69 56 48 43 35 39 47 44 33 24 25 27 26 29 31 33 37 40 43 42 40 43 45 45
11 9 9 9 8 8 9 8 8 7 7 7 7 8 8 9 11 10 11 11 11 12 12 11 10 10 10 9 9 10 10 10 10 10 11 10 11 10 10 11 11 13 15 17 20 21 23 22 19 19 20 21 22 24 25 28 31 31 31 32 34 39 48 59 61 53 50 50 43 41 45 41 30 26 28 28 25 27 29 31 35 38 42 45 46 48 46 44
18 11 9 9 8 8 8 7 7 6 6 7 7 8 7 8 8 9 10 11 11 12 10 10 10 9 9 8 9 10 11 12 11 11 12 12 12 12 11 12 12 14 15 18 20 22 25 23 20 20 21 22 23 24 25 27 30 31 30 33 37 38 39 45 50 47 50 60 56 45 40 34 29 29 29 26 24 26 30 33 34 37 42 45 48 49 45 43
26 16 10 9 8 8 8 7 7 6 6 6 7 7 7 7 8 8 10 10 10 10 10 10 9 9 9 9 9 10 11 12 12 13 13 13 13 13 13 14 14 16 17 18 21 23 25 23 21 22 22 22 24 25 26 28 31 32 32 35 37 39 41 43 45 44 54 68 60 41 35 35 33 31 27 27 29 29 32 35 37 40 44 47 49 47 44 43
27 18 12 9 8 8 8 7 7 6 6 7 7 7 7 8 9 9 9 10 10 10 10 10 10 10 10 10 10 10 11 13 13 14 15 14 14 14 14 15 15 16 17 19 22 23 24 24 23 23 23 23 24 25 27 27 30 32 33 36 37 39 43 43 47 55 69 80 65 41 36 39 38 35 30 31 33 31 34 38 40 42 45 48 49 46 43 43
24 14 11 9 8 8 7 6 6 6 7 7 6 7 8 9 9 10 10 10 11 11 10 11 11 11 11 11 12 12 12 14 14 15 16 16 16 16 16 16 16 17 17 20 22 24 26 27 26 26 24 24 25 26 27 27 29 31 33 35 37 41 44 44 50 59 68 79 73 50 39 39 39 37 34 33 34 34 37 41 42 44 47 49 47 44 43 43
20 9 7 7 7 6 6 6 6 6 7 6 7 8 8 10 10 10 11 10 10 10 10 11 12 12 12 13 13 14 15 15 15 16 17 17 17 16 16 16 17 18 19 21 23 25 28 30 30 28 25 25 26 27 27 28 29 31 34 37 38 42 46 46 51 54 57 72 80 68 52 43 38 37 36 36 35 37 41 44 47 48 48 47 44 43 43 42
11 6 6 6 5 6 6 6 6 6 7 7 8 9 9 10 10 9 10 10 10 11 11 11 12 13 13 13 14 16 16 16 17 17 18 18 17 16 17 18 18 19 20 22 24 26 29 32 31 28 26 26 27 27 27 28 30 32 35 37 39 43 47 48 50 47 49 65 83 87 70 44 34 38 37 36 38 41 45 49 51 50 47 45 43 43 42 40
7 6 6 6 6 7 6 7 7 8 9 9 9 10 9 9 9 9 9 10 11 11 12 12 12 13 14 15 15 16 18 18 18 18 18 18 17 18 19 19 19 20 22 22 24 26 29 32 32 29 27 26 26 27 27 27 29 32 34 36 39 43 46 54 60 52 45 53 65 78 72 44 32 38 36 37 43 46 50 53 51 48 46 45 43 43 41 37
7 7 7 7 7 7 7 9 10 10 10 10 9 9 9 8 9 9 10 11 11 11 12 12 13 14 15 16 16 17 19 19 19 19 19 18 18 19 19 20 20 21 23 24 25 27 29 31 32 29 27 27 27 27 26 27 29 31 34 35 37 42 44 51 61 53 47 50 50 63 72 49 32 36 38 42 47 51 55 52 47 46 46 45 44 42 38 33
8 8 7 7 7 7 9 10 10 11 9 9 9 8 9 9 9 10 10 11 11 11 12 13 14 15 16 17 18 19 19 21 21 20 19 19 19 20 20 21 22 22 24 26 26 28 30 32 32 30 27 26 26 25 25 27 29 31 34 37 39 44 43 46 53 49 50 54 50 64 76 52 32 39 42 46 53 56 54 48 45 48 47 45 45 40 35 29
8 8 7 7 8 9 10 10 10 10 9 9 9 9 9 10 10 11 11 11 12 12 14 14 15 16 17 18 19 20 20 22 22 21 20 20 20 20 21 21 21 23 24 26 27 28 30 31 32 34 35 35 34 32 29 28 30 32 34 38 41 44 46 48 51 53 56 55 50 63 69 48 38 44 47 52 58 54 50 49 50 49 47 47 44 35 28 25
7 8 8 9 10 10 10 10 9 9 9 9 9 9 10 10 10 11 11 11 13 14 15 15 16 17 18 19 20 20 21 21 22 22 21 21 21 21 21 21 22 23 24 26 27 29 30 30 30 35 41 45 43 39 34 32 33 34 35 39 41 43 48 51 53 57 60 56 53 57 56 47 46 49 53 59 58 51 52 52 50 50 49 43 34 28 29 34
8 9 10 10 10 9 9 9 9 10 10 10 9 9 9 9 10 11 12 13 14 15 16 16 17 18 19 20 21 21 21 21 22 22 21 22 22 21 22 22 22 23 24 26 27 29 31 29 28 31 33 34 34 32 34 36 37 38 38 39 41 43 46 50 57 60 57 57 60 56 52 54 54 55 60 61 56 54 54 51 51 52 44 32 27 30 41 52
10 11 11 10 10 9 9 9 10 10 10 9 8 8 9 10 12 13 14 15 16 16 17 17 18 20 20 21 22 21 22 23 23 22 22 23 23 23 23 23 23 24 24 25 26 30 32 29 28 29 27 26 29 30 33 38 39 39 40 40 43 47 49 50 55 55 54 62 65 58 57 62 60 60 65 64 59 57 53 50 49 43 30 23 25 31 40 52
10 10 9 9 8 8 8 8 9 8 8 8 8 9 11 13 14 15 16 16 17 17 18 18 19 20 20 22 22 22 23 23 23 23 23 24 24 24 24 23 24 24 24 26 28 30 32 30 28 28 25 25 29 31 32 36 38 38 42 46 48 50 51 52 53 54 59 66 67 63 66 67 64 63 64 62 60 55 48 42 36 25 16 16 23 31 39 46
7 7 6 7 7 7 7 7 7 7 8 9 10 12 14 15 16 17 17 17 18 18 19 19 19 20 20 21 22 23 24 24 24 24 24 24 24 23 23 23 24 24 25 28 29 30 33 32 30 30 27 25 28 31 32 35 38 40 45 52 55 56 57 58 59 62 66 68 67 69 70 66 64 65 62 59 55 47 37 28 19 13 12 20 32 42 44 47
5 6 6 6 6 7 7 8 8 10 11 13 14 15 16 17 17 18 19 19 19 20 20 21 21 21 21 22 22 23 24 24 25 24 23 23 22 22 23 23 23 24 26 28 29 31 34 33 32 34 32 27 27 31 33 37 41 43 48 55 59 64 66 66 66 68 70 69 68 71 71 64 61 62 60 55 45 35 28 20 12 10 17 29 40 47 57 70
5 6 6 7 8 9 10 11 13 14 15 16 17 17 17 18 19 20 21 21 21 22 22 22 22 22 22 22 22 23 23 23 23 22 22 22 21 22 23 23 24 25 25 26 28 29 33 35 36 39 40 33 29 32 35 37 41 45 50 56 62 68 72 72 71 69 68 66 65 69 70 65 62 61 57 46 29 21 24 25 21 19 25 37 51 67 85 96
8 10 11 11 12 13 14 16 16 17 17 18 18 19 20 20 22 23 23 22 23 23 23 22 22 22 21 21 21 21 21 21 21 21 22 22 22 22 23 23 24 24 25 27 28 29 33 37 39 45 47 36 30 35 36 37 45 50 52 60 69 71 70 70 68 63 61 62 65 69 69 67 64 53 39 28 16 12 20 29 32 35 44 60 77 91 99 99
Wind_Speed
13 14 16 16 16 14 12 9 9 9 10 10 11 11 10 8 8 7 8 10 11 11 10 10 10 10 10 10 9 9 9 10 12 11 10 11 9 8 8 7 7 7 7 6 6 6 6 7 7 7 7 7 7 8 8 8 9 10 11 11 12 12 12 13 14 15 16 17 18 19 20 20 21 21 22 22 21 21 21 20 20 20 19 20 21 22 23 23
12 13 15 15 15 14 12 9 8 9 9 10 10 10 8 7 7 6 8 10 11 11 10 10 10 9 9 9 9 9 9 9 11 12 9 8 7 7 7 7 7 6 6 6 5 5 6 6 5 6 6 7 7 8 8 8 9 10 11 12 12 13 14 14 15 16 16 17 17 19 20 21 22 22 23 22 21 22 21 21 21 20 19 20 21 22 23 23
11 12 13 14 14 14 12 9 8 8 8 9 10 9 6 5 5 6 7 9 10 11 11 10 10 9 9 9 9 8 8 9 10 11 8 6 6 6 6 6 6 6 5 5 4 4 4 4 4 5 6 7 8 9 9 8 9 10 11 12 12 13 14 14 15 16 16 17 17 19 20 21 22 23 23 22 22 23 21 21 22 20 20 20 21 23 24 23
9 11 12 12 12 12 11 9 7 7 7 8 9 6 4 3 4 6 7 8 10 11 11 10 9 9 9 9 8 8 8 8 10 8 6 5 5 5 6 6 5 4 4 3 3 3 4 4 4 5 6 7 8 10 10 9 10 11 11 11 12 12 14 14 15 16 17 17 18 18 19 20 21 23 23 23 23 22 21 22 22 21 20 20 21 23 24 23
8 9 10 10 10 10 10 8 6 6 6 6 6 4 2 2 4 6 7 9 12 12 12 11 10 9 9 9 8 8 7 7 8 7 5 5 5 5 5 5 4 3 2 2 2 3 3 4 5 5 6 8 9 10 11 10 11 12 11 11 11 12 13 13 14 16 17 17 18 18 18 19 21 22 22 23 23 21 22 24 22 21 20 19 21 23 24 23
5 7 8 8 8 8 8 8 7 6 4 4 3 2 2 2 5 7 9 11 12 12 12 11 10 9 8 7 6 6 4 3 6 6 5 5 5 5 5 4 3 2 1 1 2 3 4 4 5 6 7 9 10 11 11 11 11 12 12 12 12 12 12 13 14 16 16 17 18 18 18 19 20 21 21 22 20 21 25 24 22 20 19 19 20 23 23 23
4 2 6 6 6 6 5 6 6 5 4 2 1 3 3 4 6 8 10 11 11 10 9 8 8 7 6 6 5 6 5 5 7 6 5 5 5 5 4 4 2 1 2 3 3 4 4 5 6 7 8 9 10 11 11 12 11 12 12 13 14 14 13 14 15 16 17 17 18 18 18 18 19 20 21 19 17 22 26 23 20 19 18 19 20 23 23 22
9 5 3 5 3 3 2 4 4 3 3 1 3 4 5 6 8 9 10 10 9 8 8 8 8 7 7 6 6 7 7 6 6 5 5 4 4 4 3 3 1 1 3 4 5 5 5 6 7 8 9 10 11 11 11 12 11 12 13 14 15 15 15 16 17 17 18 18 18 20 21 20 19 21 20 16 17 23 24 20 18 18 18 18 20 23 23 23
11 8 3 4 2 2 3 3 3 2 2 3 5 5 6 8 9 9 9 8 7 8 9 8 7 7 7 6 5 6 6 6 5 5 4 4 4 3 2 1 2 2 3 5 6 5 5 6 7 9 10 11 11 11 12 12 12 12 14 14 15 17 17 18 19 20 20 20 21 22 23 22 22 23 19 14 18 21 20 19 18 18 18 18 20 23 24 23
10 8 4 2 1 2 4 4 4 1 3 4 5 6 6 8 9 9 8 8 8 9 9 7 6 6 6 5 5 5 6 6 5 5 4 4 4 3 2 3 4 4 4 5 6 5 5 6 8 10 11 11 12 12 12 11 12 13 14 14 16 17 18 19 20 21 21 22 23 23 25 26 24 22 17 13 18 19 19 20 18 18 18 17 20 23 24 23
10 8 4 2 2 4 4 4 3 1 4 4 5 7 7 8 10 10 9 9 9 9 8 7 6 5 5 5 5 5 5 5 5 4 4 3 3 3 4 4 4 4 4 5 5 5 6 7 9 11 11 10 12 12 11 11 13 14 14 14 15 16 17 19 20 21 22 23 23 24 27 27 21 18 15 15 18 19 19 19 18 18 17 17 20 23 24 23
8 7 4 4 4 5 5 3 1 3 5 4 5 6 7 8 9 10 9 9 9 9 8 7 5 5 5 5 5 6 6 5 4 4 3 3 3 4 5 4 4 5 5 5 6 7 7 8 10 11 10 10 12 11 11 12 14 14 14 15 15 15 16 17 18 20 22 22 23 25 28 24 17 16 16 17 18 18 19 18 18 18 17 17 20 23 24 23
7 7 5 4 3 4 5 3 1 5 6 5 6 7 8 9 9 9 9 9 9 9 8 7 6 6 6 5 5 5 5 4 3 2 3 3 3 4 4 4 5 5 6 7 8 8 8 8 10 10 9 10 11 11 12 14 14 14 15 15 15 15 15 16 17 20 21 22 23 25 27 22 15 16 17 17 19 18 18 18 18 18 17 17 19 23 23 22
6 5 3 5 4 4 5 4 3 5 6 7 8 9 10 10 10 10 10 10 9 9 8 7 7 6 6 5 5 5 4 3 2 2 2 3 4 4 4 5 6 6 7 8 8 9 9 8 10 9 9 11 11 11 12 14 14 14 14 15 16 16 16 16 18 20 20 23 24 22 26 24 18 17 17 18 20 19 19 18 18 17 16 17 20 23 23 21
4 3 4 7 6 5 5 5 5 6 6 8 10 11 11 10 11 11 11 10 9 8 8 8 7 7 6 5 4 4 3 2 2 2 2 3 4 5 5 6 6 7 7 8 8 9 8 8 10 9 10 11 11 12 13 14 14 14 14 15 17 18 18 18 19 20 21 24 24 20 26 29 21 17 17 18 20 20 19 17 16 15 15 17 20 22 21 21
4 3 6 7 6 6 6 7 7 6 7 9 11 12 12 11 12 12 11 10 9 8 8 8 8 7 5 4 3 3 3 1 1 2 3 3 3 4 5 6 6 7 8 8 8 9 8 9 9 9 10 11 11 12 14 14 13 14 16 17 18 20 20 20 20 21 23 26 24 21 29 32 24 17 16 18 20 22 20 14 12 14 15 17 20 21 20 20
5 3 4 5 5 6 7 7 7 7 8 10 11 12 12 11 11 10 10 11 10 8 8 8 7 5 3 3 2 2 2 1 2 2 3 4 4 5 5 6 7 7 8 8 8 9 9 9 10 10 11 12 12 13 14 14 14 17 18 18 20 21 21 22 21 23 26 27 26 26 31 32 24 17 15 17 21 23 18 11 9 13 15 17 18 19 20 21
5 4 2 3 4 5 5 7 8 8 9 10 11 12 11 10 10 10 10 11 9 8 7 6 6 4 2 2 2 1 1 2 2 3 4 4 5 5 5 7 7 7 9 9 9 10 10 10 11 11 12 14 13 13 14 15 16 19 19 20 21 21 23 22 21 25 27 27 28 29 32 31 22 16 16 19 22 20 12 7 9 12 14 16 17 19 20 23
7 6 4 3 4 5 6 6 7 8 8 8 9 10 9 9 9 10 11 11 9 8 6 6 6 3 2 3 2 1 2 3 3 4 4 4 5 6 6 7 7 8 9 9 10 11 11 11 11 11 13 14 13 14 15 16 18 19 20 21 21 22 23 21 23 27 26 28 30 30 32 28 21 17 17 18 18 13 7 5 9 13 15 16 17 19 22 24
8 7 6 5 5 6 6 6 7 7 7 6 7 7 7 8 9 9 10 10 9 8 6 6 6 5 4 4 3 3 3 4 5 5 5 5 6 6 6 7 8 8 9 10 10 11 11 11 11 12 13 14 14 14 16 17 18 19 20 21 22 23 22 21 25 26 27 31 31 31 30 24 21 17 14 16 14 8 5 5 11 16 17 17 18 20 23 25
7 7 6 4 5 6 7 7 7 7 7 6 6 6 7 7 8 9 9 9 9 9 7 6 7 6 6 5 6 6 6 6 6 7 7 7 7 8 7 8 9 9 9 10 11 11 12 11 11 13 14 14 14 15 17 18 18 20 21 22 22 23 23 23 24 25 29 33 33 33 28 21 19 13 12 16 11 6 6 7 14 20 19 19 20 21 24 26
7 6 4 2 3 5 7 7 7 7 7 5 5 6 7 7 8 8 8 9 9 9 8 8 8 8 7 7 8 8 9 9 9 8 8 8 9 9 8 9 9 10 10 11 11 12 13 11 12 14 14 15 15 15 17 18 19 20 21 23 23 22 24 23 22 25 28 33 36 33 26 21 15 8 13 15 7 6 9 9 16 21 19 20 21 23 26 27
6 5 4 2 2 3 5 7 6 6 6 5 5 6 7 6 7 7 8 8 9 8 8 8 8 9 9 9 10 10 11 11 11 10 10 10 10 10 10 10 10 11 11 11 12 13 13 12 13 15 15 16 16 16 18 18 19 21 22 23 22 22 24 24 25 26 26 31 34 30 28 22 9 7 14 11 6 8 9 9 18 20 19 20 22 24 27 29
6 6 4 3 2 3 4 6 6 5 5 4 4 5 6 5 6 7 7 9 10 9 9 9 9 10 11 11 12 12 13 12 13 12 12 12 11 11 11 11 11 11 11 12 12 13 14 13 14 16 16 17 17 16 18 19 19 21 22 22 23 24 24 25 29 28 28 29 25 27 28 14 5 10 15 10 8 10 9 10 19 20 20 21 21 25 29 32
6 5 4 2 1 3 4 5 6 5 4 3 3 4 5 5 6 7 7 9 10 10 11 12 12 13 13 14 14 15 15 15 15 15 14 13 13 13 12 12 13 13 13 14 13 14 14 13 15 17 17 18 18 17 18 19 20 21 22 22 24 25 24 26 28 29 30 25 20 24 18 6 10 15 12 10 9 10 9 12 19 22 21 21 22 26 31 34
5 4 4 2 2 3 4 5 5 4 3 2 2 3 4 5 6 6 7 9 10 11 12 12 13 13 13 14 14 14 15 14 14 14 14 14 14 14 13 14 15 15 15 15 15 15 14 15 17 17 18 18 18 18 18 19 21 22 22 23 25 25 26 27 26 27 26 21 21 20 8 8 20 19 11 10 9 9 11 14 21 23 21 23 24 27 33 36
4 4 4 4 3 3 4 4 4 4 3 2 2 2 2 3 5 6 7 8 8 9 11 12 13 14 14 14 14 14 14 13 13 14 14 14 14 15 15 16 16 16 16 16 17 16 15 17 17 18 19 19 19 18 18 20 21 21 23 25 25 26 27 27 26 26 22 20 20 16 9 10 18 20 15 10 8 9 11 15 22 23 24 25 25 29 35 37
4 4 4 4 3 4 4 3 3 3 2 2 2 2 2 3 5 7 6 3 4 7 9 9 11 13 15 16 16 17 17 17 17 16 16 16 16 17 18 17 17 17 17 18 19 18 18 19 18 20 20 19 19 18 18 20 20 21 24 25 26 28 29 26 24 22 18 16 13 11 9 6 14 22 14 7 9 8 10 18 22 24 26 26 27 31 35 38
4 5 5 4 3 3 3 3 3 3 3 4 4 4 4 4 6 7 4 1 4 7 7 8 10 11 12 13 15 16 17 18 18 18 19 19 20 20 20 19 20 20 20 20 21 19 19 19 19 21 21 19 19 17 19 21 19 21 24 25 27 29 27 22 20 18 11 9 8 7 5 2 15 25 9 4 10 7 12 20 21 24 25 24 28 32 35 38
6 6 6 5 4 3 3 3 3 3 5 5 6 6 6 6 7 5 2 3 6 9 9 10 10 11 11 13 13 15 16 17 18 19 20 21 22 22 22 22 22 22 21 21 21 20 19 19 20 21 20 19 18 18 20 20 19 21 23 26 29 27 22 18 17 12 5 5 4 5 5 1 10 18 8 6 10 7 14 20 21 23 22 23 28 31 35 39
6 7 7 5 4 2 2 2 3 4 6 6 8 8 8 9 8 3 1 5 9 9 8 8 10 12 14 15 16 17 18 18 19 20 21 23 23 23 22 22 22 22 22 21 20 19 18 19 21 21 19 18 17 17 19 20 21 20 21 26 26 21 15 11 9 4 1 3 3 6 8 4 8 15 11 9 8 8 15 19 21 22 21 24 27 30 35 39
6 7 7 5 4 2 2 2 3 5 6 7 8 9 10 10 8 5 6 8 7 5 7 11 15 17 18 19 19 20 20 21 21 22 23 23 23 23 22 22 22 21 20 19 20 21 21 21 20 18 17 16 15 17 20 22 19 18 22 24 18 11 9 5 3 1 3 4 4 9 10 9 19 20 11 7 6 9 17 20 22 22 23 27 28 30 36 38
6 7 7 5 4 3 2 2 3 5 7 9 9 10 10 7 5 7 8 8 7 9 14 17 19 20 21 22 23 22 23 23 22 21 21 22 22 22 21 21 21 19 19 21 22 21 19 17 15 15 15 13 15 19 21 20 18 20 21 18 10 4 4 4 3 3 5 5 7 15 13 12 19 17 15 15 9 10 19 23 25 25 26 30 30 33 37 39
7 8 7 6 5 5 4 3 5 7 9 10 11 11 10 7 8 11 11 11 13 16 18 20 22 24 24 24 23 21 21 20 19 19 19 21 21 21 20 20 20 20 20 21 19 15 12 11 12 13 12 14 19 22 21 20 21 20 16 14 11 4 2 4 3 3 6 8 13 18 11 8 15 21 26 22 8 8 21 26 27 29 31 32 33 34 38 41
8 9 8 7 7 6 6 6 7 9 11 12 12 12 11 9 10 12 13 14 16 18 21 24 26 26 24 22 19 17 17 18 19 20 20 20 20 21 21 20 19 19 19 16 14 12 11 11 11 11 14 19 23 22 20 19 17 14 15 16 14 8 6 8 9 11 10 9 10 13 13 18 28 33 25 12 7 13 22 26 27 30 34 34 33 36 40 43
9 10 10 9 9 9 9 9 10 12 12 13 14 14 13 12 12 14 15 16 19 21 23 25 24 22 21 19 17 17 19 20 21 21 20 19 19 19 17 16 16 16 16 16 15 12 10 11 12 14 19 23 22 19 19 18 16 15 18 19 16 13 11 10 11 12 7 5 5 9 20 29 32 30 19 11 16 20 21 26 28 30 34 34 34 39 43 46
10 11 11 11 11 11 11 12 13 13 13 14 15 15 14 14 14 15 16 17 20 21 22 24 22 20 19 18 19 20 21 21 21 20 21 20 18 15 14 14 14 15 15 16 16 15 16 19 20 19 20 20 19 19 21 20 19 19 19 19 16 12 8 6 5 5 2 2 5 9 23 32 24 18 20 21 24 21 22 30 32 33 36 35 38 42 45 49
12 11 11 11 12 12 12 13 13 13 14 15 15 15 14 13 13 14 15 18 19 21 22 22 20 19 19 20 22 24 23 22 21 21 22 19 15 13 14 16 17 17 17 17 16 17 19 20 18 16 16 18 20 21 22 22 20 20 20 20 16 10 7 6 4 4 3 2 4 6 17 30 24 16 22 27 25 24 29 35 36 36 37 39 44 47 49 53
11 12 11 11 11 11 12 13 13 14 15 15 14 13 12 13 14 15 17 19 20 21 21 20 19 20 22 23 25 25 24 23 22 22 20 16 14 16 19 19 18 17 17 17 17 18 18 15 13 16 18 21 22 22 22 22 22 22 21 20 18 13 11 10 6 5 4 3 5 3 7 20 22 17 25 29 27 31 37 39 38 37 39 44 49 51 54 57
10 11 10 10 10 11 12 13 14 14 14 14 13 13 13 15 16 17 18 18 19 20 21 22 22 22 24 24 24 23 23 22 21 21 19 17 19 20 18 16 15 16 17 17 17 18 18 15 15 20 23 23 23 22 23 25 24 24 22 20 18 15 12 12 11 13 10 4 3 0 4 23 32 29 31 30 30 37 41 40 39 38 42 48 51 55 58 59
9 9 9 9 10 11 12 14 14 13 13 13 13 13 14 15 17 17 17 18 19 20 20 22 21 22 22 22 21 21 22 21 20 19 18 19 19 16 14 15 17 18 19 19 19 18 17 17 20 26 27 24 24 24 25 26 23 21 21 19 18 16 13 10 7 13 15 11 9 2 6 32 45 37 31 31 34 39 37 37 41 43 46 51 54 57 59 60
8 8 9 9 10 11 13 13 13 12 13 13 13 14 14 15 16 16 17 18 18 19 20 20 20 20 20 19 19 19 20 21 21 17 16 16 16 16 17 19 20 20 20 20 19 18 17 18 23 27 27 24 25 24 21 18 16 17 18 18 18 17 17 13 8 11 12 14 17 7 6 33 45 33 29 35 37 35 34 38 45 47 50 55 57 59 60 62
8 9 10 10 11 12 12 12 12 12 13 13 14 14 15 16 16 16 17 17 18 19 19 19 19 19 18 18 18 18 19 20 17 13 14 16 18 18 18 19 19 19 19 18 17 17 16 16 21 27 29 27 23 19 14 13 16 19 21 21 19 18 21 19 19 21 15 16 20 8 5 29 40 31 32 35 33 32 36 43 49 51 54 58 60 62 62 63
9 10 10 10 10 11 11 12 13 13 13 14 14 14 15 15 15 15 16 17 18 19 19 18 18 17 17 17 17 17 17 15 14 15 17 18 18 19 19 20 19 19 19 19 18 18 16 15 20 23 22 19 14 9 10 17 24 27 27 26 24 24 25 23 24 24 17 18 20 9 11 31 38 35 36 32 31 38 45 49 53 55 58 61 64 64 63 62
10 10 10 9 10 11 12 13 13 13 13 13 13 13 13 14 14 15 16 17 18 18 17 17 17 16 16 15 15 16 16 15 16 17 18 18 19 19 19 19 19 19 20 20 20 20 18 19 21 17 10 10 11 12 16 24 28 30 30 30 30 30 28 26 23 18 15 17 18 18 26 42 43 39 36 32 37 48 54 55 57 58 61 64 65 64 62 60
9 9 9 10 10 11 11 11 11 11 12 13 14 14 13 14 15 16 17 17 17 17 17 16 16 15 15 15 16 16 16 16 17 18 19 19 19 19 19 19 20 20 20 20 20 19 20 22 22 20 19 21 24 26 27 30 31 32 32 29 28 27 26 26 24 22 22 23 25 27 35 45 47 42 36 38 48 56 59 61 63 63 65 65 64 62 60 58
9 9 10 11 11 10 10 10 12 13 13 14 14 14 14 14 15 16 16 16 16 16 16 15 15 15 15 16 17 17 17 17 18 20 20 19 20 21 21 21 21 21 20 20 19 18 20 22 23 23 27 30 30 30 30 31 31 30 27 23 21 21 22 23 22 23 24 22 26 31 34 39 44 42 38 45 56 61 63 65 66 67 66 65 63 62 60 59
11 11 11 11 11 10 11 12 13 13 13 14 14 14 14 14 15 16 16 16 15 16 15 14 14 15 15 16 17 18 18 19 19 20 20 21 22 22 22 22 21 20 19 18 18 18 19 23 25 25 28 30 29 29 29 27 24 23 22 19 16 14 15 17 17 18 19 21 26 36 38 37 39 39 41 52 61 63 65 66 66 67 65 64 63 62 62 62
11 11 10 10 10 10 11 11 12 12 12 13 14 14 14 14 14 15 15 15 15 14 14 14 14 15 16 17 18 19 20 20 20 21 21 22 22 22 22 22 20 20 20 19 21 21 20 23 25 26 29 29 27 27 26 21 22 24 19 13 12 13 14 16 18 21 22 26 33 39 39 38 36 38 48 60 63 64 65 65 65 65 64 64 63 62 63 64
10 9 9 9 9 9 9 10 10 11 11 12 13 13 13 13 13 14 14 15 14 14 14 15 16 17 17 18 19 19 20 20 21 21 22 22 22 22 22 21 20 21 22 23 24 22 20 23 25 26 28 28 26 24 22 23 27 22 10 9 14 19 19 19 22 27 30 34 38 36 37 39 38 42 55 63 64 63 63 63 64 65 64 64 63 62 64 65
8 8 8 8 8 8 9 9 10 11 11 11 12 12 13 13 13 14 15 15 15 15 16 16 16 17 17 17 18 19 19 19 20 20 21 21 22 22 21 21 22 22 23 23 23 23 22 23 24 23 25 27 25 22 23 28 25 11 6 12 19 23 25 26 27 30 34 39 40 36 36 38 39 47 60 65 65 63 62 62 64 65 65 63 62 63 63 63
6 7 7 8 8 8 9 9 10 10 10 11 12 12 13 13 14 15 16 15 16 16 16 16 16 16 16 17 17 17 18 18 19 19 20 20 21 20 20 20 20 20 21 20 20 22 21 21 22 19 19 24 25 23 27 26 13 4 7 14 21 27 31 32 31 32 35 38 37 33 32 34 42 55 65 67 67 67 65 64 64 65 63 61 61 63 62 62
Wind_Direction
85 82 80 77 70 67 70 83 97 106 111 110 107 100 96 96 96 104 116 114 109 106 103 102 102 103 106 108 107 108 107 104 97 88 78 77 80 78 70 60 54 49 44 42 37 33 25 21 16 6 358 345 332 324 317 309 307 309 309 310 308 305 304 303 302 301 300 300 298 295 294 293 292 291 290 289 289 290 293 296 299 302 304 309 315 320 322 322
81 78 75 74 70 65 67 75 88 98 105 105 98 90 89 92 95 109 120 119 114 111 110 109 108 109 112 113 112 112 108 101 93 87 83 84 86 80 73 63 53 43 38 36 29 23 20 15 2 351 347 338 330 325 321 316 315 316 314 309 305 303 304 303 301 300 300 298 296 292 291 291 290 290 289 290 289 290 296 299 300 301 303 309 316 320 323 324
77 75 68 66 67 64 66 69 79 94 100 97 87 79 81 89 101 119 127 123 115 112 112 110 111 113 114 114 114 114 108 100 93 93 95 93 90 83 76 65 51 39 35 30 24 19 12 357 337 332 336 335 335 335 331 326 324 321 314 307 303 302 302 302 302 303 302 299 294 291 290 288 289 290 290 290 289 294 301 299 299 300 301 309 315 320 324 325
80 70 60 59 61 61 63 63 71 86 92 86 77 75 79 90 118 131 132 124 115 114 115 115 119 121 121 121 119 116 110 103 96 98 104 102 97 90 79 69 55 43 37 29 18 7 350 332 321 324 328 327 333 339 338 331 326 323 316 307 305 305 304 305 306 307 306 301 296 294 290 288 289 290 292 292 292 299 301 296 298 298 299 308 314 320 325 326
92 68 53 52 54 56 58 57 66 80 82 72 70 88 93 102 140 141 134 124 119 120 120 123 125 127 128 125 122 116 111 107 100 102 111 109 108 106 93 79 67 50 37 21 1 342 324 318 317 318 318 319 327 337 337 330 325 324 320 313 312 312 309 310 311 312 310 305 302 299 295 292 291 292 292 292 296 301 294 294 299 295 297 306 313 321 326 326
109 71 49 45 48 53 60 58 67 85 82 62 75 135 165 161 160 152 140 129 125 124 124 128 130 133 132 127 128 122 122 126 111 107 110 113 117 115 108 99 85 56 32 347 327 317 314 317 319 315 313 316 323 330 333 328 324 325 323 319 321 321 316 315 316 315 313 309 306 303 302 298 294 293 290 293 300 296 290 295 298 292 296 305 312 322 325 326
210 84 39 37 41 50 65 56 58 85 90 69 142 178 198 188 173 161 148 136 131 128 129 136 137 138 132 126 127 118 114 120 114 108 107 112 115 114 118 119 109 68 13 335 319 316 319 325 324 318 314 317 321 325 328 326 322 322 324 324 326 326 323 319 316 315 312 310 307 306 307 302 298 293 291 299 300 289 290 297 294 291 298 304 312 322 325 326
245 247 357 17 23 37 41 28 34 75 98 152 185 183 198 192 178 166 154 143 136 137 139 141 140 138 130 124 123 115 109 108 106 102 101 101 98 99 108 118 113 30 351 332 323 323 329 331 325 318 317 321 323 323 324 325 321 322 326 325 326 326 322 318 314 313 315 314 312 312 311 310 307 299 298 304 291 285 294 299 294 294 299 303 313 322 325 327
247 242 266 357 5 344 350 7 31 66 140 184 186 188 198 194 182 171 161 147 140 146 146 144 147 141 134 131 125 115 107 101 94 88 86 82 82 79 71 71 45 4 341 330 324 325 330 330 325 322 323 324 324 323 323 324 323 324 325 323 322 321 319 316 314 315 318 318 317 316 313 314 313 306 304 299 288 290 298 298 295 295 298 301 313 323 325 327
227 217 227 340 4 309 336 12 35 77 190 187 184 189 193 195 190 182 168 150 145 154 155 155 155 145 141 139 127 116 106 97 87 79 71 67 67 56 28 18 16 354 332 326 322 321 326 329 330 329 327 325 324 322 323 326 325 325 322 320 320 318 317 315 315 317 318 319 319 318 314 313 314 309 304 294 294 299 298 298 298 296 297 300 313 323 324 327
203 198 219 307 302 290 312 358 21 187 202 183 180 190 189 192 192 186 172 156 158 168 167 161 157 151 149 142 130 117 104 95 85 73 61 54 47 36 23 11 1 340 327 328 326 329 337 337 335 332 326 324 325 325 326 326 325 323 319 319 318 316 316 314 315 317 318 320 319 318 313 313 317 311 303 299 301 302 298 301 300 297 296 298 313 323 324 327
202 207 234 283 284 285 289 317 350 214 212 187 186 193 191 189 184 178 166 162 171 175 171 167 164 162 156 141 126 111 100 95 86 74 59 45 37 33 23 6 347 335 337 341 344 346 348 343 334 330 323 322 327 327 327 326 325 322 318 319 316 316 315 313 315 317 319 320 320 319 314 317 322 309 304 305 306 303 301 302 299 297 294 296 311 322 325 326
210 215 242 283 278 269 273 287 265 227 218 198 199 198 198 193 179 170 164 167 178 180 182 182 172 163 156 143 125 107 99 96 86 75 56 36 31 29 16 0 346 342 347 351 353 352 347 341 333 329 323 325 330 327 326 326 325 320 319 319 314 314 313 314 316 317 320 320 322 321 313 321 328 309 307 306 306 307 301 301 300 296 292 295 310 321 326 326
201 205 261 301 287 266 266 271 253 232 219 210 210 206 204 197 184 173 169 174 185 187 188 182 172 164 160 150 129 109 98 92 80 61 36 25 23 18 4 356 351 345 350 353 352 349 345 337 332 329 327 330 330 326 328 328 325 321 321 319 314 314 316 319 320 319 322 320 323 320 309 319 330 316 309 303 306 307 300 301 299 293 290 296 311 321 326 327
191 217 277 296 291 269 257 257 248 233 222 218 215 211 207 200 191 180 177 183 187 184 175 168 166 166 165 154 133 113 101 93 69 33 24 20 10 9 1 354 351 347 350 351 346 345 341 332 331 331 332 332 328 327 330 329 327 324 322 320 317 318 319 322 322 320 322 319 322 321 310 318 331 323 308 303 306 303 300 305 298 290 294 301 311 320 326 329
189 226 266 285 282 256 249 249 242 229 222 221 217 213 209 204 197 188 189 190 182 176 169 164 163 163 163 149 129 113 104 82 30 11 17 11 356 1 358 350 348 347 348 345 342 342 337 331 333 336 334 331 327 328 331 330 328 326 324 323 322 320 320 324 321 318 322 321 322 323 315 320 331 325 311 310 306 300 306 314 297 293 301 305 312 321 328 332
202 231 265 277 265 250 246 237 231 224 220 220 218 213 211 210 203 197 200 194 185 183 179 171 167 171 178 164 138 112 92 34 1 351 356 359 352 350 348 347 346 345 347 344 343 342 337 336 336 337 333 329 327 328 332 331 329 330 327 326 326 321 321 325 320 318 323 322 322 324 319 321 330 330 320 312 300 299 312 316 295 301 308 308 315 325 330 333
216 250 272 260 245 239 234 226 223 220 218 219 218 214 213 213 208 205 204 199 198 202 193 186 185 189 198 184 172 136 22 353 345 339 341 346 347 342 336 343 344 342 345 344 344 343 340 339 337 335 331 328 325 323 329 330 328 331 329 327 327 322 323 326 320 319 322 321 322 325 321 320 330 333 317 304 299 304 314 301 300 315 317 317 324 331 333 334
219 246 257 244 234 225 225 226 223 220 219 221 218 214 214 213 209 208 207 205 208 208 201 200 204 217 242 227 225 257 302 317 318 326 334 332 336 337 330 334 338 339 341 341 343 344 339 335 334 331 329 326 319 315 320 325 327 330 328 326 326 323 325 326 320 319 321 320 322 325 321 320 330 329 313 308 308 309 302 290 322 335 334 333 334 335 335 336
225 242 244 239 233 224 220 221 227 227 223 224 222 216 214 211 207 207 209 211 213 211 209 213 216 231 243 233 243 267 284 297 303 313 323 324 325 331 330 326 331 335 337 338 339 341 335 329 328 328 326 322 314 311 315 320 326 327 324 323 324 324 325 325 321 321 322 320 322 325 321 321 328 325 319 319 314 305 290 310 342 350 348 345 342 340 338 338
221 229 230 234 228 218 214 214 222 229 230 228 223 215 212 212 209 209 212 214 216 219 224 228 229 239 245 244 256 269 278 286 296 305 312 317 317 324 329 322 325 331 333 334 334 335 330 322 323 324 321 320 314 310 314 317 321 325 323 323 326 325 323 323 322 323 323 319 321 323 320 322 326 320 325 322 308 297 306 324 347 354 352 348 345 342 341 342
207 209 208 216 214 209 213 215 220 230 235 234 227 219 216 216 214 217 223 225 230 237 243 243 240 246 252 259 268 272 277 280 287 296 302 307 307 315 324 320 322 326 329 330 326 327 327 317 318 320 318 318 313 310 314 314 317 323 325 324 327 325 321 322 321 323 324 319 320 321 319 325 322 312 330 323 291 297 313 331 350 352 351 348 346 345 345 346
201 201 196 214 230 210 211 218 225 232 230 231 236 229 223 224 229 236 239 241 251 254 249 245 244 251 261 269 273 274 277 281 284 288 293 298 301 308 316 317 318 320 323 325 319 320 324 316 314 318 317 315 312 310 313 312 314 321 325 325 326 326 323 321 320 323 323 319 318 317 319 326 320 318 335 323 286 305 314 337 349 349 348 348 349 349 348 347
207 213 214 241 261 216 209 216 223 225 219 223 233 232 236 245 247 254 256 256 262 259 250 249 253 260 267 270 272 273 276 280 284 285 287 291 297 303 309 312 313 313 315 317 313 313 318 313 310 314 314 313 311 309 312 311 312 320 325 324 324 325 323 320 321 322 322 321 318 318 323 327 315 326 333 320 298 308 316 339 347 346 344 346 350 351 351 349
210 221 227 248 234 204 203 205 210 210 208 213 220 233 248 256 260 268 272 269 269 264 257 259 263 267 269 271 272 272 275 280 282 283 284 288 294 299 305 308 308 309 309 310 309 307 311 311 311 311 311 312 310 308 312 309 309 319 323 323 325 325 323 321 320 320 322 321 319 324 328 315 311 324 328 315 306 312 322 339 344 343 340 341 344 347 349 349
205 216 219 199 179 186 190 195 199 198 195 199 212 233 250 265 277 279 283 287 280 271 267 264 264 268 271 273 273 273 278 283 282 282 285 288 292 296 300 303 303 305 305 305 305 305 306 307 310 310 308 309 308 306 310 309 308 316 321 323 325 324 322 321 319 318 318 315 314 319 310 283 311 327 333 317 312 318 327 338 340 340 339 338 339 343 347 349
197 205 195 178 169 173 184 194 197 193 190 196 221 242 262 283 299 298 301 305 289 274 273 269 265 269 273 274 276 278 282 287 288 287 288 289 291 295 297 299 299 300 301 301 300 302 304 304 307 310 308 306 306 305 309 309 307 311 318 323 325 324 322 319 315 313 309 308 310 307 294 281 301 324 331 309 310 325 331 341 341 340 340 341 344 346 349 351
189 189 180 177 173 175 188 204 211 211 213 229 250 259 282 307 314 313 318 334 305 288 284 280 278 279 279 277 277 279 282 287 288 287 288 289 291 294 295 296 296 296 298 296 295 298 302 300 301 307 307 305 305 303 307 310 304 307 316 321 324 324 320 316 311 308 307 311 305 294 308 281 287 317 325 295 314 336 340 343 342 341 343 347 351 352 353 354
181 185 189 190 184 188 208 227 239 249 256 265 270 266 282 306 310 315 321 291 295 299 296 299 300 297 295 290 287 287 289 290 287 286 288 288 289 293 292 293 293 293 294 293 292 295 298 298 299 304 306 303 302 301 306 309 303 307 314 320 324 322 319 315 307 305 308 306 287 278 310 291 300 313 316 293 321 336 341 343 341 339 344 350 353 355 355 355
182 192 207 205 196 204 224 250 270 290 292 286 281 276 281 293 302 324 336 261 291 301 299 305 310 310 310 308 304 301 300 298 293 291 289 287 289 291 291 292 292 291 292 291 291 293 294 295 298 303 303 300 300 301 306 308 305 308 313 319 324 323 318 312 301 304 313 298 265 251 285 341 310 311 314 317 323 331 338 341 338 336 343 350 352 355 355 353
192 201 216 214 204 212 247 287 305 317 315 305 295 285 281 288 295 303 224 282 301 303 303 318 325 322 319 315 311 308 305 302 299 295 291 290 290 290 291 292 291 293 293 291 291 293 293 295 299 301 300 299 299 303 309 310 307 308 313 321 326 325 320 307 289 297 296 284 259 259 289 292 274 295 316 316 313 339 341 339 336 335 340 345 349 352 352 351
212 211 218 215 207 220 260 302 323 328 325 318 308 294 289 293 287 260 264 292 304 303 313 321 320 319 318 314 311 309 307 303 300 297 294 293 292 291 291 289 290 293 292 292 293 294 293 294 295 297 297 298 300 308 314 312 308 309 315 323 330 331 333 319 259 252 232 238 265 284 293 283 278 291 320 325 321 352 349 345 341 336 336 340 345 348 348 347
234 228 223 218 217 230 247 292 325 329 327 322 315 304 299 297 277 266 278 286 287 298 310 313 314 315 315 312 311 310 307 303 301 299 297 297 295 294 293 290 290 288 286 292 297 297 296 294 293 295 297 300 304 313 316 310 308 310 313 324 334 347 355 317 279 292 274 251 285 296 294 285 287 301 327 325 321 345 349 350 346 340 337 336 340 344 343 342
250 243 235 233 235 237 247 287 312 319 321 317 315 312 300 282 274 282 287 285 287 297 305 309 311 311 310 310 311 311 308 306 305 306 305 303 301 299 298 294 292 289 287 292 296 294 290 289 294 296 297 304 309 313 314 309 310 310 310 319 321 306 250 270 270 280 294 298 297 295 286 269 291 311 322 319 300 331 346 347 342 340 337 333 334 338 338 337
254 253 249 247 248 250 261 285 303 310 313 311 311 308 296 284 285 291 293 292 294 300 305 308 310 310 311 313 315 316 313 309 310 310 308 306 304 303 301 297 294 293 291 290 291 290 283 283 292 295 298 307 310 311 313 312 312 310 309 311 308 292 257 255 269 273 286 310 301 281 268 276 298 314 325 327 303 323 342 342 336 334 333 330 329 332 334 334
260 258 257 254 254 260 271 285 299 303 305 307 306 303 297 293 292 295 296 296 300 303 306 309 311 312 314 315 316 316 313 310 311 311 310 310 309 305 303 302 300 299 295 289 287 289 282 279 288 296 301 306 308 310 313 313 309 304 305 305 302 299 279 260 273 280 279 301 286 269 281 290 304 319 332 346 332 329 337 337 332 328 327 326 326 329 332 333
272 264 259 257 259 266 275 287 296 298 301 303 302 302 301 299 298 299 299 299 302 305 308 311 312 311 311 311 311 312 312 311 311 311 311 312 310 304 303 305 305 304 300 293 286 283 283 285 290 296 300 304 308 310 311 311 308 302 299 301 303 302 282 253 273 303 309 280 261 258 284 292 295 307 323 337 338 335 334 332 329 324 323 325 327 329 331 331
285 280 270 265 267 274 282 290 294 297 301 301 302 303 302 302 305 304 302 302 303 305 307 309 309 308 307 307 308 310 310 309 309 309 310 310 306 303 306 306 304 302 299 295 289 286 289 293 296 296 299 305 308 309 310 312 311 306 300 300 300 289 268 256 263 307 319 294 278 253 278 288 285 289 321 336 340 337 335 332 327 323 325 328 329 331 331 332
284 286 284 281 282 286 290 293 296 300 301 302 304 305 303 302 303 303 303 303 304 306 307 307 307 306 306 306 307 308 307 307 308 308 308 306 303 305 308 305 302 301 301 298 293 289 291 292 292 295 300 305 307 308 310 310 311 308 302 298 296 282 268 261 242 256 273 272 293 291 277 289 292 301 321 333 341 339 336 332 328 326 328 330 332 333 333 333
279 281 285 287 289 291 293 294 297 300 300 302 305 304 301 300 300 301 303 304 305 306 306 307 307 305 305 307 307 307 307 308 309 309 306 303 304 307 309 306 304 306 305 302 297 294 290 283 282 293 300 304 306 308 307 307 307 303 299 297 295 286 272 269 259 258 261 244 262 356 281 288 296 307 318 331 340 336 335 332 328 328 330 331 334 334 334 333
276 276 279 281 284 287 290 292 295 298 300 303 305 303 301 299 300 303 304 305 306 306 306 308 308 307 307 307 308 309 308 308 311 311 306 305 308 308 307 308 308 306 304 301 299 295 291 284 283 291 298 303 305 306 306 306 305 301 300 300 298 291 277 273 268 257 252 245 252 228 278 290 298 308 319 334 338 334 335 332 329 330 331 333 334 334 334 333
270 271 274 278 281 284 287 290 295 298 300 302 303 303 303 302 303 306 306 306 307 308 310 311 311 310 309 309 311 312 310 309 312 312 308 308 310 307 306 309 308 306 304 303 300 298 294 289 287 292 299 304 304 306 307 305 304 303 305 305 304 297 283 272 267 269 257 249 262 253 255 288 298 312 326 335 337 334 334 333 332 332 333 334 334 333 333 332
269 274 278 281 284 286 289 293 296 298 299 301 303 304 305 305 307 309 309 309 310 311 314 314 313 312 312 314 314 314 314 312 311 312 310 310 311 310 310 310 309 308 307 305 303 302 299 293 292 297 304 305 303 307 310 306 309 310 309 309 305 300 295 286 276 278 272 256 265 259 233 282 297 318 332 336 336 331 333 336 336 334 333 333 332 332 332 331
273 279 284 288 290 292 294 295 297 299 299 302 305 307 308 309 311 312 310 311 312 313 315 315 315 315 316 316 315 316 317 313 308 310 313 313 313 313 311 309 308 307 306 304 302 301 297 293 294 300 311 314 310 312 311 310 312 310 309 310 308 305 304 296 284 279 272 264 266 250 253 282 300 324 335 338 336 333 337 338 337 336 333 332 331 331 332 331
279 284 289 293 294 296 297 297 298 299 303 306 308 310 312 313 313 311 310 312 314 315 316 317 318 318 318 318 318 319 319 314 310 312 316 316 315 313 311 309 308 306 305 305 304 301 295 292 292 291 293 295 297 304 306 307 307 306 306 307 308 307 303 297 291 275 264 271 262 248 272 292 310 331 338 341 339 337 338 337 335 335 333 331 331 331 331 330
282 288 292 295 298 299 299 300 303 306 310 311 311 314 316 315 313 312 314 316 317 318 319 320 320 321 322 322 322 322 322 319 315 313 316 317 315 314 313 311 309 308 306 306 305 301 295 294 295 290 282 284 296 304 305 304 303 303 305 308 308 307 303 298 287 271 274 282 272 273 289 302 317 333 338 339 340 338 337 336 335 334 332 330 330 331 330 328
287 290 293 297 299 299 299 303 307 310 312 312 313 316 318 316 316 317 319 321 321 322 322 323 324 324 325 325 324 324 324 322 316 315 317 317 316 316 314 313 312 309 308 306 304 300 295 296 299 297 295 299 305 307 306 304 304 305 310 316 317 311 304 297 288 287 294 286 281 302 311 307 316 333 339 338 339 337 335 334 333 331 330 329 329 329 328 326
289 290 292 295 297 298 301 305 308 310 312 314 315 317 319 319 319 322 323 323 325 325 326 328 329 327 327 326 324 324 323 319 318 319 319 318 318 317 316 316 313 310 310 308 305 302 297 298 302 302 305 307 307 309 311 309 311 317 323 330 328 322 318 312 311 320 311 285 294 319 321 311 320 336 338 336 337 334 332 331 330 329 328 327 328 328 326 325
289 291 294 297 302 305 308 309 310 312 315 316 317 319 321 322 322 324 326 327 329 330 330 331 330 327 327 325 323 323 320 319 320 320 319 318 318 318 316 315 314 313 312 309 306 305 300 299 303 305 307 310 312 316 319 320 322 325 332 350 357 352 348 338 335 339 325 310 318 327 322 319 330 337 335 334 334 330 328 328 327 327 327 327 328 327 326 326
292 297 302 307 312 314 314 314 314 317 318 318 319 322 323 324 326 328 329 329 331 333 331 330 328 327 326 324 323 321 319 319 319 318 319 319 318 318 316 314 314 312 310 309 307 306 301 298 303 306 307 311 318 323 325 324 323 325 343 18 4 357 356 350 343 342 336 330 331 329 322 324 333 335 331 330 328 326 326 326 326 326 327 327 328 327 328 329
301 306 312 319 323 320 317 318 319 322 323 322 324 325 326 327 329 330 330 329 330 331 329 328 327 327 326 324 322 321 320 320 319 318 319 318 316 316 313 312 312 310 309 310 307 306 303 299 304 308 305 310 320 325 324 321 320 333 21 359 353 358 356 351 347 346 342 338 334 330 324 326 331 330 327 325 324 325 326 325 326 327 327 328 329 330 331 329
316 319 321 326 328 323 321 323 324 327 329 328 329 330 328 329 330 330 329 329 330 330 328 328 329 327 327 325 324 324 323 322 321 320 319 317 315 315 313 311 311 310 310 311 307 308 307 303 307 308 300 308 319 323 323 321 320 9 8 348 352 356 351 348 346 344 343 340 333 325 323 326 327 325 323 324 325 325 326 327 328 328 329 331 332 331 329 327